• In Italy
  • List of Countries
  • For 7 days
  • Water Temperature
  • Satellite Maps
  • Weather Map
  • Weather Widgets
  • user-avatar
    Login

    Hourly Weather Fier

    Today, 17 January, Wednesday

    Time Temperature Precipitation Wind Pressure Humidity
    00:00 +9°C° 0.1 mm 5 mps 758 mmHg 90%
    01:00 +9°C° 0 mm 5 mps 757 mmHg 91%
    02:00 +9°C° 0.1 mm 5 mps 757 mmHg 91%
    03:00 +9°C° 0.1 mm 5 mps 756 mmHg 91%
    04:00 +9°C° 0.1 mm 5 mps 756 mmHg 91%
    05:00 +9°C° 0.2 mm 6 mps 755 mmHg 90%
    06:00 +9°C° 0.2 mm 7 mps 755 mmHg 89%
    07:00 +9°C° 0 mm 7 mps 754 mmHg 88%
    08:00 +10°C° 0.1 mm 8 mps 753 mmHg 86%
    09:00 +10°C° 0.1 mm 9 mps 753 mmHg 85%
    10:00 +11°C° 0.1 mm 9 mps 752 mmHg 83%
    11:00 +12°C° 0.5 mm 10 mps 752 mmHg 83%
    12:00 +12°C° 0.5 mm 11 mps 751 mmHg 83%
    13:00 +13°C° 0.5 mm 11 mps 750 mmHg 83%
    14:00 +13°C° 1.1 mm 12 mps 749 mmHg 82%
    15:00 +12°C° 1.1 mm 12 mps 748 mmHg 82%
    16:00 +12°C° 1.1 mm 12 mps 747 mmHg 81%
    17:00 +12°C° 1.1 mm 12 mps 748 mmHg 83%
    18:00 +10°C° 1.1 mm 12 mps 748 mmHg 85%
    19:00 +9°C° 1.1 mm 12 mps 748 mmHg 87%
    20:00 +9°C° 0.4 mm 13 mps 749 mmHg 82%
    21:00 +8°C° 0.4 mm 13 mps 750 mmHg 78%
    22:00 +8°C° 0.4 mm 14 mps 750 mmHg 73%
    23:00 +6°C° 0.2 mm 14 mps 751 mmHg 72%

    Tomorrow, 18 January, Thursday

    Time Temperature Precipitation Wind Pressure Humidity
    00:00 +5°C° 0.2 mm 14 mps 753 mmHg 72%
    01:00 +5°C° 0.2 mm 14 mps 754 mmHg 71%
    02:00 +4°C° 0.1 mm 13 mps 755 mmHg 70%
    03:00 +3°C° 0.1 mm 13 mps 756 mmHg 69%
    04:00 +2°C° 0.1 mm 12 mps 757 mmHg 67%
    05:00 +1°C° 0 mm 11 mps 758 mmHg 68%
    06:00 +1°C° 0 mm 10 mps 759 mmHg 68%
    07:00 0°C° 0 mm 8 mps 760 mmHg 68%
    08:00 +2°C° 0 mm 9 mps 761 mmHg 61%
    09:00 +3°C° 0 mm 9 mps 761 mmHg 53%
    10:00 +6°C° 0 mm 9 mps 762 mmHg 46%
    11:00 +6°C° 0 mm 9 mps 762 mmHg 45%
    12:00 +7°C° 0 mm 8 mps 762 mmHg 44%
    13:00 +7°C° 0 mm 8 mps 762 mmHg 42%
    14:00 +8°C° 0 mm 7 mps 763 mmHg 47%
    15:00 +8°C° 0 mm 6 mps 763 mmHg 52%
    16:00 +7°C° 0 mm 5 mps 763 mmHg 57%
    17:00 +6°C° 0 mm 4 mps 763 mmHg 58%
    18:00 +5°C° 0 mm 3 mps 763 mmHg 59%
    19:00 +5°C° 0 mm 2 mps 764 mmHg 60%
    20:00 +5°C° 0 mm 2 mps 764 mmHg 60%
    21:00 +5°C° 0 mm 2 mps 764 mmHg 59%
    22:00 +4°C° 0 mm 3 mps 764 mmHg 59%
    23:00 +4°C° 0 mm 3 mps 764 mmHg 61%

    Day after tomorrow, 19 January, Friday

    Time Temperature Precipitation Wind Pressure Humidity
    00:00 +4°C° 0 mm 4 mps 764 mmHg 62%
    01:00 +4°C° 0 mm 4 mps 763 mmHg 63%
    02:00 +4°C° 0 mm 4 mps 763 mmHg 65%
    03:00 +3°C° 0 mm 5 mps 763 mmHg 66%
    04:00 +3°C° 0 mm 5 mps 762 mmHg 67%
    05:00 +3°C° 0 mm 5 mps 762 mmHg 66%
    06:00 +3°C° 0 mm 5 mps 762 mmHg 66%
    07:00 +3°C° 0 mm 5 mps 762 mmHg 65%
    08:00 +6°C° 0 mm 5 mps 762 mmHg 64%
    09:00 +8°C° 0 mm 5 mps 762 mmHg 63%
    10:00 +10°C° 0 mm 5 mps 762 mmHg 61%
    11:00 +10°C° 0 mm 5 mps 761 mmHg 62%
    12:00 +12°C° 0 mm 5 mps 761 mmHg 64%
    13:00 +13°C° 0 mm 5 mps 760 mmHg 65%
    14:00 +12°C° 0 mm 5 mps 760 mmHg 69%
    15:00 +11°C° 0 mm 6 mps 760 mmHg 73%
    16:00 +10°C° 0 mm 6 mps 760 mmHg 78%
    17:00 +9°C° 0 mm 6 mps 760 mmHg 80%
    18:00 +9°C° 0 mm 6 mps 760 mmHg 83%
    19:00 +8°C° 0 mm 6 mps 760 mmHg 85%
    20:00 +8°C° 0 mm 6 mps 760 mmHg 86%
    21:00 +8°C° 0 mm 6 mps 760 mmHg 86%
    22:00 +7°C° 0 mm 6 mps 759 mmHg 87%
    23:00 +7°C° 0 mm 6 mps 759 mmHg 87%

    20 January, Saturday

    Time Temperature Precipitation Wind Pressure Humidity
    00:00 +6°C° 0 mm 7 mps 759 mmHg 87%
    01:00 +6°C° 0 mm 7 mps 759 mmHg 87%
    02:00 +6°C° 0 mm 7 mps 758 mmHg 88%
    03:00 +8°C° 0 mm 7 mps 758 mmHg 88%
    04:00 +8°C° 0 mm 7 mps 758 mmHg 88%
    05:00 +8°C° 0.1 mm 7 mps 757 mmHg 88%
    06:00 +8°C° 0.1 mm 7 mps 757 mmHg 88%
    07:00 +8°C° 0.1 mm 7 mps 757 mmHg 88%
    08:00 +9°C° 0.3 mm 7 mps 757 mmHg 88%
    09:00 +10°C° 0.3 mm 7 mps 757 mmHg 87%
    10:00 +10°C° 0.3 mm 7 mps 756 mmHg 87%
    11:00 +11°C° 0.5 mm 7 mps 756 mmHg 84%
    12:00 +12°C° 0.5 mm 7 mps 756 mmHg 80%
    13:00 +14°C° 0.5 mm 7 mps 755 mmHg 77%
    14:00 +13°C° 0.6 mm 6 mps 755 mmHg 80%
    15:00 +12°C° 0.6 mm 5 mps 755 mmHg 83%
    16:00 +12°C° 0.6 mm 4 mps 755 mmHg 86%
    17:00 +11°C° 0.3 mm 3 mps 756 mmHg 88%
    18:00 +10°C° 0.3 mm 3 mps 756 mmHg 89%
    19:00 +9°C° 0.3 mm 2 mps 756 mmHg 91%
    20:00 +9°C° 0.1 mm 2 mps 757 mmHg 90%
    21:00 +9°C° 0.1 mm 2 mps 757 mmHg 89%
    22:00 +9°C° 0.1 mm 2 mps 757 mmHg 88%
    23:00 +10°C° 0.1 mm 1 mps 757 mmHg 87%

    21 January, Sunday

    Time Temperature Precipitation Wind Pressure Humidity
    00:00 +9°C° 0.1 mm 1 mps 757 mmHg 87%
    01:00 +9°C° 0.1 mm 1 mps 757 mmHg 86%
    02:00 +9°C° 0.2 mm 1 mps 756 mmHg 86%
    03:00 +9°C° 0.2 mm 1 mps 756 mmHg 86%
    04:00 +9°C° 0.2 mm 1 mps 756 mmHg 86%
    05:00 +8°C° 0.2 mm 2 mps 755 mmHg 86%
    06:00 +8°C° 0.2 mm 3 mps 755 mmHg 85%
    07:00 +8°C° 0.2 mm 3 mps 754 mmHg 85%
    08:00 +8°C° 0.2 mm 4 mps 754 mmHg 82%
    09:00 +10°C° 0.2 mm 4 mps 754 mmHg 79%
    10:00 +11°C° 0.2 mm 4 mps 753 mmHg 76%
    11:00 +10°C° 0.7 mm 5 mps 752 mmHg 76%
    12:00 +10°C° 0.7 mm 5 mps 752 mmHg 76%
    13:00 +10°C° 0.7 mm 6 mps 751 mmHg 77%
    14:00 +9°C° 3 mm 6 mps 751 mmHg 78%
    15:00 +9°C° 3 mm 6 mps 751 mmHg 80%
    16:00 +8°C° 3 mm 6 mps 751 mmHg 82%
    17:00 +7°C° 1.8 mm 6 mps 752 mmHg 81%
    18:00 +6°C° 1.8 mm 7 mps 752 mmHg 79%
    19:00 +5°C° 1.8 mm 7 mps 753 mmHg 77%
    20:00 +5°C° 0.7 mm 7 mps 754 mmHg 76%
    21:00 +5°C° 0.7 mm 7 mps 754 mmHg 76%
    22:00 +4°C° 0.7 mm 7 mps 755 mmHg 75%
    23:00 +4°C° 0.1 mm 7 mps 756 mmHg 74%

    22 January, Monday

    Time Temperature Precipitation Wind Pressure Humidity
    00:00 +4°C° 0.1 mm 7 mps 756 mmHg 74%
    01:00 +3°C° 0.1 mm 7 mps 757 mmHg 74%
    02:00 +3°C° 0 mm 7 mps 757 mmHg 74%
    03:00 +3°C° 0 mm 6 mps 758 mmHg 74%
    04:00 +3°C° 0 mm 6 mps 758 mmHg 74%
    05:00 +2°C° 0 mm 6 mps 759 mmHg 74%
    06:00 +2°C° 0 mm 6 mps 759 mmHg 75%
    07:00 +2°C° 0 mm 6 mps 760 mmHg 75%
    08:00 +3°C° 0 mm 6 mps 760 mmHg 70%
    09:00 +4°C° 0 mm 6 mps 761 mmHg 65%
    10:00 +5°C° 0 mm 6 mps 761 mmHg 60%
    11:00 +7°C° 0 mm 5 mps 761 mmHg 58%
    12:00 +7°C° 0 mm 5 mps 761 mmHg 55%
    13:00 +8°C° 0 mm 5 mps 761 mmHg 53%
    14:00 +8°C° 0 mm 5 mps 762 mmHg 57%
    15:00 +7°C° 0 mm 5 mps 762 mmHg 61%
    16:00 +7°C° 0 mm 5 mps 762 mmHg 65%
    17:00 +6°C° 0 mm 5 mps 763 mmHg 67%
    18:00 +5°C° 0 mm 4 mps 763 mmHg 69%
    19:00 +4°C° 0 mm 4 mps 763 mmHg 72%
    20:00 +4°C° 0 mm 4 mps 764 mmHg 72%
    21:00 +4°C° 0 mm 3 mps 764 mmHg 72%
    22:00 +4°C° 0 mm 3 mps 764 mmHg 72%
    23:00 +3°C° 0 mm 3 mps 764 mmHg 72%
    Show more